| time (UTC) | temp C | wind direction | speed KPH | gust KPH | rain 1hr cm | rain 24hr cm | rain mn cm | humidity % | barometer mb |
| 20260906231537 | 13 | 286 | 11.3 | 20.9 | 0.00 | 0.00 | 0.00 | 86 | 1018.2 |
| 20260906231018 | 13 | 306 | 9.7 | 17.7 | 0.00 | 0.00 | 0.00 | 86 | 1018.2 |
| 20260906230518 | 13 | 298 | 11.3 | 17.7 | 0.00 | 0.00 | 0.00 | 86 | 1018.2 |
| 20260906230036 | 13 | 304 | 11.3 | 17.7 | 0.00 | 0.00 | 0.00 | 87 | 1018.3 |
| 20260906225519 | 13 | 311 | 9.7 | 17.7 | 0.00 | 0.00 | 0.00 | 86 | 1018.4 |
| 20260906225016 | 13 | 307 | 12.9 | 20.9 | 0.00 | 0.00 | 0.00 | 87 | 1018.4 |
| 20260906224532 | 13 | 294 | 14.5 | 20.9 | 0.00 | 0.00 | 0.00 | 87 | 1018.5 |
| 20260906224019 | 12 | 303 | 14.5 | 20.9 | 0.00 | 0.00 | 0.00 | 87 | 1018.4 |
| 20260906223521 | 13 | 328 | 12.9 | 20.9 | 0.00 | 0.00 | 0.00 | 87 | 1018.4 |
| 20260906223046 | 13 | 313 | 12.9 | 17.7 | 0.00 | 0.00 | 0.00 | 88 | 1018.4 |
| 20260906222516 | 13 | 294 | 12.9 | 22.5 | 0.00 | 0.00 | 0.00 | 88 | 1018.3 |
| 20260906222018 | 12 | 304 | 8.0 | 22.5 | 0.00 | 0.00 | 0.00 | 88 | 1018.3 |
| 20260906221535 | 12 | 315 | 16.1 | 22.5 | 0.00 | 0.00 | 0.00 | 89 | 1018.3 |
| 20260906221018 | 12 | 303 | 11.3 | 19.3 | 0.00 | 0.00 | 0.00 | 90 | 1018.3 |
| 20260906220518 | 12 | 311 | 12.9 | 19.3 | 0.00 | 0.00 | 0.00 | 90 | 1018.3 |
| 20260906220039 | 12 | 313 | 11.3 | 16.1 | 0.00 | 0.00 | 0.00 | 91 | 1018.3 |
| 20260906215519 | 12 | 298 | 9.7 | 16.1 | 0.00 | 0.00 | 0.00 | 92 | 1018.3 |
| 20260906215019 | 11 | 295 | 9.7 | 17.7 | 0.00 | 0.00 | 0.00 | 91 | 1018.3 |
| 20260906214547 | 12 | 277 | 9.7 | 17.7 | 0.00 | 0.00 | 0.00 | 92 | 1018.3 |
| 20260906214018 | 12 | 327 | 11.3 | 16.1 | 0.00 | 0.00 | 0.00 | 92 | 1018.2 |
| 20260906213522 | 11 | 319 | 9.7 | 14.5 | 0.00 | 0.00 | 0.00 | 92 | 1018.2 |
| 20260906213034 | 11 | 298 | 9.7 | 16.1 | 0.00 | 0.00 | 0.00 | 92 | 1018.3 |
| 20260906212518 | 11 | 326 | 8.0 | 16.1 | 0.00 | 0.00 | 0.00 | 91 | 1018.4 |
| 20260906212018 | 12 | 292 | 8.0 | 14.5 | 0.00 | 0.00 | 0.00 | 91 | 1018.4 |
| 20260906211542 | 12 | 299 | 3.2 | 12.9 | 0.00 | 0.00 | 0.00 | 92 | 1018.4 |
| 20260906211017 | 11 | 300 | 4.8 | 12.9 | 0.00 | 0.00 | 0.00 | 92 | 1018.4 |
| 20260906210521 | 11 | 295 | 4.8 | 12.9 | 0.00 | 0.00 | 0.00 | 93 | 1018.4 |
| 20260906210059 | 11 | 280 | 8.0 | 16.1 | 0.00 | 0.00 | 0.00 | 93 | 1018.5 |
| 20260906205517 | 11 | 282 | 9.7 | 16.1 | 0.00 | 0.00 | 0.00 | 93 | 1018.4 |
| 20260906205017 | 11 | 292 | 8.0 | 16.1 | 0.00 | 0.00 | 0.00 | 93 | 1018.4 |
| 20260906204022 | 11 | 315 | 4.8 | 12.9 | 0.00 | 0.00 | 0.00 | 93 | 1018.4 |
| 20260906203518 | 11 | 292 | 8.0 | 12.9 | 0.00 | 0.00 | 0.00 | 93 | 1018.5 |
| 20260906202518 | 11 | 300 | 6.4 | 12.9 | 0.00 | 0.00 | 0.00 | 93 | 1018.5 |
| 20260906202019 | 11 | 297 | 8.0 | 12.9 | 0.00 | 0.00 | 0.00 | 93 | 1018.5 |
| 20260906201546 | 11 | 316 | 8.0 | 12.9 | 0.00 | 0.00 | 0.00 | 92 | 1018.4 |
| 20260906201019 | 11 | 295 | 8.0 | 14.5 | 0.00 | 0.00 | 0.00 | 92 | 1018.5 |
| 20260906200519 | 11 | 290 | 6.4 | 14.5 | 0.00 | 0.00 | 0.00 | 92 | 1018.5 |
| 20260906195520 | 11 | 313 | 6.4 | 14.5 | 0.00 | 0.00 | 0.00 | 92 | 1018.5 |
| 20260906195019 | 11 | 292 | 9.7 | 14.5 | 0.00 | 0.00 | 0.00 | 91 | 1018.6 |
| 20260906194537 | 11 | 297 | 11.3 | 14.5 | 0.00 | 0.00 | 0.00 | 91 | 1018.5 |
| 20260906194018 | 11 | 279 | 4.8 | 12.9 | 0.00 | 0.00 | 0.00 | 91 | 1018.5 |
| 20260906193516 | 11 | 319 | 8.0 | 12.9 | 0.00 | 0.00 | 0.00 | 91 | 1018.6 |
| 20260906192519 | 11 | 314 | 8.0 | 14.5 | 0.00 | 0.00 | 0.00 | 90 | 1018.7 |
| 20260906192017 | 11 | 294 | 6.4 | 16.1 | 0.00 | 0.00 | 0.00 | 90 | 1018.7 |
| 20260906191017 | 12 | 302 | 6.4 | 12.9 | 0.00 | 0.00 | 0.00 | 90 | 1018.7 |
| 20260906190520 | 11 | 309 | 3.2 | 9.7 | 0.00 | 0.00 | 0.00 | 90 | 1018.8 |
| 20260906185516 | 11 | 296 | 6.4 | 12.9 | 0.00 | 0.00 | 0.00 | 91 | 1018.8 |
| 20260906185019 | 11 | 352 | 8.0 | 14.5 | 0.00 | 0.00 | 0.00 | 90 | 1018.7 |
| 20260906184536 | 11 | 338 | 9.7 | 14.5 | 0.00 | 0.00 | 0.00 | 91 | 1018.7 |
| 20260906184019 | 11 | 322 | 6.4 | 14.5 | 0.00 | 0.00 | 0.00 | 90 | 1018.6 |
| 20260906183516 | 11 | 292 | 4.8 | 14.5 | 0.00 | 0.00 | 0.00 | 91 | 1018.8 |
| 20260906183041 | 11 | 314 | 8.0 | 12.9 | 0.00 | 0.00 | 0.00 | 91 | 1018.8 |
| 20260906182517 | 11 | 287 | 6.4 | 14.5 | 0.00 | 0.00 | 0.00 | 91 | 1018.8 |
| 20260906182018 | 11 | 277 | 6.4 | 14.5 | 0.00 | 0.00 | 0.00 | 91 | 1018.8 |
| 20260906181539 | 11 | 315 | 6.4 | 12.9 | 0.00 | 0.00 | 0.00 | 91 | 1018.8 |
| 20260906181018 | 11 | 292 | 4.8 | 11.3 | 0.00 | 0.00 | 0.00 | 92 | 1018.7 |
| 20260906180520 | 11 | 107 | 0.0 | 4.8 | 0.00 | 0.00 | 0.00 | 92 | 1018.8 |
| 20260906175521 | 11 | 107 | 0.0 | 11.3 | 0.00 | 0.00 | 0.00 | 93 | 1019.0 |
| 20260906175017 | 11 | 107 | 6.4 | 9.7 | 0.00 | 0.00 | 0.00 | 93 | 1019.0 |
| 20260906174017 | 11 | 107 | 0.0 | 11.3 | 0.00 | 0.00 | 0.00 | 94 | 1019.2 |
| 20260906173516 | 11 | 107 | 3.2 | 11.3 | 0.00 | 0.00 | 0.00 | 93 | 1019.2 |
| 20260906173036 | 10 | 122 | 3.2 | 9.7 | 0.00 | 0.00 | 0.00 | 93 | 1019.2 |
| 20260906172518 | 10 | 277 | 0.0 | 6.4 | 0.00 | 0.00 | 0.00 | 93 | 1019.1 |
| 20260906172016 | 10 | 277 | 3.2 | 8.0 | 0.00 | 0.00 | 0.00 | 93 | 1019.2 |
| 20260906171020 | 10 | 294 | 1.6 | 6.4 | 0.00 | 0.00 | 0.00 | 94 | 1019.2 |
| 20260906170519 | 10 | 294 | 3.2 | 11.3 | 0.00 | 0.00 | 0.00 | 94 | 1019.1 |
| 20260906170036 | 10 | 306 | 4.8 | 12.9 | 0.00 | 0.00 | 0.00 | 93 | 1019.1 |
| 20260906165520 | 10 | 298 | 6.4 | 12.9 | 0.00 | 0.00 | 0.00 | 94 | 1019.1 |
| 20260906165019 | 10 | 304 | 3.2 | 8.0 | 0.00 | 0.00 | 0.00 | 94 | 1019.0 |
| 20260906164018 | 10 | 298 | 6.4 | 8.0 | 0.00 | 0.00 | 0.00 | 94 | 1019.1 |
| 20260906163522 | 10 | 304 | 0.0 | 8.0 | 0.00 | 0.00 | 0.00 | 94 | 1019.1 |
| 20260906162017 | 10 | 351 | 0.0 | 6.4 | 0.00 | 0.00 | 0.00 | 94 | 1019.2 |
| 20260906161535 | 10 | 317 | 3.2 | 6.4 | 0.00 | 0.00 | 0.00 | 94 | 1019.1 |
| 20260906161019 | 10 | 317 | 3.2 | 8.0 | 0.00 | 0.00 | 0.00 | 94 | 1019.1 |
| 20260906160519 | 10 | 317 | 4.8 | 8.0 | 0.00 | 0.00 | 0.00 | 94 | 1019.0 |
| 20260906160038 | 10 | 269 | 1.6 | 6.4 | 0.00 | 0.00 | 0.00 | 94 | 1019.0 |
| 20260906155516 | 10 | 269 | 1.6 | 4.8 | 0.00 | 0.00 | 0.00 | 94 | 1019.0 |
| 20260906155018 | 10 | 269 | 1.6 | 9.7 | 0.00 | 0.00 | 0.00 | 94 | 1018.9 |
| 20260906153518 | 10 | 318 | 0.0 | 8.0 | 0.00 | 0.00 | 0.00 | 94 | 1018.8 |
| 20260906152518 | 10 | 296 | 3.2 | 11.3 | 0.00 | 0.00 | 0.00 | 93 | 1018.7 |
| 20260906152019 | 10 | 296 | 4.8 | 11.3 | 0.00 | 0.00 | 0.00 | 94 | 1018.7 |
| 20260906151017 | 10 | 294 | 4.8 | 6.4 | 0.00 | 0.00 | 0.00 | 94 | 1018.6 |
| 20260906150517 | 10 | 294 | 1.6 | 4.8 | 0.00 | 0.00 | 0.00 | 94 | 1018.6 |
| 20260906150043 | 10 | 294 | 0.0 | 3.2 | 0.00 | 0.00 | 0.00 | 93 | 1018.6 |
| 20260906145518 | 10 | 294 | 0.0 | 6.4 | 0.00 | 0.00 | 0.00 | 93 | 1018.6 |
| 20260906145018 | 10 | 294 | 3.2 | 6.4 | 0.00 | 0.00 | 0.00 | 93 | 1018.7 |
| 20260906144541 | 10 | 294 | 0.0 | 8.0 | 0.00 | 0.00 | 0.00 | 93 | 1018.8 |
| 20260906144016 | 10 | 294 | 4.8 | 8.0 | 0.00 | 0.00 | 0.00 | 93 | 1018.7 |
| 20260906142517 | 10 | 303 | 4.8 | 8.0 | 0.00 | 0.00 | 0.00 | 93 | 1018.6 |
| 20260906142023 | 10 | 303 | 4.8 | 9.7 | 0.00 | 0.00 | 0.00 | 93 | 1018.5 |
| 20260906141018 | 10 | 115 | 1.6 | 3.2 | 0.00 | 0.00 | 0.00 | 92 | 1018.4 |
| 20260906140519 | 10 | 115 | 1.6 | 11.3 | 0.00 | 0.00 | 0.00 | 93 | 1018.4 |
| 20260906140038 | 10 | 115 | 4.8 | 14.5 | 0.00 | 0.00 | 0.00 | 93 | 1018.3 |
| 20260906135517 | 10 | 115 | 9.7 | 19.3 | 0.00 | 0.00 | 0.00 | 92 | 1018.4 |
| 20260906135016 | 10 | 113 | 14.5 | 19.3 | 0.00 | 0.00 | 0.00 | 92 | 1018.3 |
| 20260906134017 | 10 | 105 | 8.0 | 11.3 | 0.00 | 0.00 | 0.00 | 92 | 1018.4 |
| 20260906133517 | 10 | 90 | 6.4 | 9.7 | 0.00 | 0.00 | 0.00 | 91 | 1018.5 |
| 20260906132520 | 10 | 113 | 3.2 | 12.9 | 0.00 | 0.00 | 0.00 | 91 | 1018.4 |
| 20260906132017 | 10 | 115 | 8.0 | 12.9 | 0.00 | 0.00 | 0.00 | 91 | 1018.4 |
| 20260906131019 | 10 | 99 | 6.4 | 12.9 | 0.00 | 0.00 | 0.00 | 91 | 1018.4 |
| 20260906130519 | 10 | 109 | 6.4 | 11.3 | 0.00 | 0.00 | 0.00 | 92 | 1018.4 |
| 20260906125520 | 10 | 121 | 1.6 | 4.8 | 0.00 | 0.00 | 0.00 | 92 | 1018.5 |
| 20260906125025 | 10 | 121 | 0.0 | 11.3 | 0.00 | 0.00 | 0.00 | 92 | 1018.5 |
| 20260906124018 | 10 | 288 | 0.0 | 6.4 | 0.00 | 0.00 | 0.00 | 92 | 1018.5 |
| 20260906123518 | 10 | 288 | 4.8 | 6.4 | 0.00 | 0.00 | 0.00 | 92 | 1018.5 |
| 20260906122020 | 11 | 317 | 1.6 | 6.4 | 0.00 | 0.00 | 0.00 | 91 | 1018.3 |
| 20260906120517 | 11 | 134 | 12.9 | 16.1 | 0.00 | 0.00 | 0.00 | 90 | 1018.1 |
| 20260906120039 | 11 | 124 | 11.3 | 16.1 | 0.00 | 0.00 | 0.00 | 92 | 1017.9 |
| 20260906115521 | 11 | 107 | 6.4 | 9.7 | 0.00 | 0.00 | 0.00 | 92 | 1018.1 |
| 20260906115017 | 11 | 86 | 3.2 | 6.4 | 0.00 | 0.00 | 0.00 | 92 | 1018.0 |
| 20260906113517 | 11 | 278 | 1.6 | 6.4 | 0.00 | 0.00 | 0.00 | 92 | 1018.1 |
| 20260906112020 | 11 | 278 | 4.8 | 11.3 | 0.00 | 0.00 | 0.00 | 90 | 1018.0 |
| 20260906111538 | 11 | 288 | 6.4 | 11.3 | 0.00 | 0.00 | 0.00 | 88 | 1018.1 |
| 20260906111018 | 11 | 115 | 0.0 | 9.7 | 0.00 | 0.00 | 0.00 | 86 | 1018.2 |
| 20260906110519 | 11 | 115 | 6.4 | 9.7 | 0.00 | 0.00 | 0.00 | 86 | 1018.0 |
| 20260906110035 | 12 | 131 | 0.0 | 11.3 | 0.00 | 0.00 | 0.00 | 86 | 1018.1 |
| 20260906105518 | 12 | 131 | 4.8 | 12.9 | 0.00 | 0.00 | 0.00 | 86 | 1018.1 |
| 20260906105018 | 12 | 95 | 9.7 | 12.9 | 0.00 | 0.00 | 0.00 | 86 | 1018.0 |
| 20260906104535 | 12 | 101 | 3.2 | 6.4 | 0.00 | 0.00 | 0.00 | 86 | 1018.0 |
| 20260906104016 | 12 | 101 | 3.2 | 6.4 | 0.00 | 0.00 | 0.00 | 86 | 1018.0 |
| 20260906103055 | 12 | 271 | 6.4 | 11.3 | 0.00 | 0.00 | 0.00 | 87 | 1018.1 |
| 20260906102519 | 12 | 114 | 1.6 | 11.3 | 0.00 | 0.00 | 0.00 | 87 | 1018.0 |
| 20260906101538 | 12 | 92 | 6.4 | 12.9 | 0.00 | 0.00 | 0.00 | 86 | 1018.0 |
| 20260906101019 | 12 | 105 | 9.7 | 12.9 | 0.00 | 0.00 | 0.00 | 86 | 1018.0 |
| 20260906100518 | 12 | 120 | 9.7 | 14.5 | 0.00 | 0.00 | 0.00 | 88 | 1018.1 |
| 20260906100036 | 11 | 292 | 3.2 | 16.1 | 0.00 | 0.00 | 0.00 | 89 | 1018.1 |
| 20260906095516 | 11 | 288 | 12.9 | 16.1 | 0.00 | 0.00 | 0.00 | 87 | 1018.1 |
| 20260906095016 | 12 | 294 | 9.7 | 12.9 | 0.00 | 0.00 | 0.00 | 84 | 1018.1 |
| 20260906094535 | 12 | 303 | 3.2 | 6.4 | 0.00 | 0.00 | 0.00 | 79 | 1018.0 |
| 20260906094017 | 12 | 303 | 3.2 | 11.3 | 0.00 | 0.00 | 0.00 | 81 | 1018.0 |
| 20260906093041 | 12 | 288 | 9.7 | 12.9 | 0.00 | 0.00 | 0.00 | 81 | 1017.8 |
| 20260906092519 | 13 | 113 | 1.6 | 6.4 | 0.00 | 0.00 | 0.00 | 81 | 1017.7 |
| 20260906092024 | 13 | 113 | 4.8 | 9.7 | 0.00 | 0.00 | 0.00 | 81 | 1017.6 |
| 20260906091535 | 13 | 113 | 6.4 | 9.7 | 0.00 | 0.00 | 0.00 | 82 | 1017.7 |
| 20260906091016 | 13 | 113 | 1.6 | 6.4 | 0.00 | 0.00 | 0.00 | 80 | 1017.7 |
| 20260906090516 | 13 | 113 | 1.6 | 4.8 | 0.00 | 0.00 | 0.00 | 82 | 1017.7 |
| 20260906085019 | 13 | 113 | 3.2 | 4.8 | 0.00 | 0.00 | 0.00 | 82 | 1017.7 |
| 20260906084539 | 13 | 113 | 3.2 | 6.4 | 0.00 | 0.00 | 0.00 | 82 | 1017.8 |
| 20260906084018 | 13 | 113 | 3.2 | 6.4 | 0.00 | 0.00 | 0.00 | 82 | 1017.8 |
| 20260906083519 | 13 | 113 | 3.2 | 6.4 | 0.00 | 0.00 | 0.00 | 81 | 1017.7 |
| 20260906083042 | 13 | 113 | 4.8 | 6.4 | 0.00 | 0.00 | 0.00 | 81 | 1017.7 |
| 20260906082518 | 13 | 113 | 4.8 | 6.4 | 0.00 | 0.00 | 0.00 | 81 | 1017.8 |
| 20260906082019 | 13 | 113 | 4.8 | 6.4 | 0.00 | 0.00 | 0.00 | 82 | 1017.8 |
| 20260906081537 | 13 | 113 | 4.8 | 6.4 | 0.00 | 0.00 | 0.00 | 81 | 1017.7 |
| 20260906081018 | 13 | 113 | 4.8 | 9.7 | 0.00 | 0.00 | 0.00 | 80 | 1017.7 |
| 20260906075520 | 14 | 113 | 4.8 | 9.7 | 0.00 | 0.00 | 0.00 | 79 | 1017.7 |
| 20260906075018 | 13 | 113 | 4.8 | 9.7 | 0.00 | 0.00 | 0.00 | 80 | 1017.7 |
| 20260906074539 | 13 | 146 | 6.4 | 8.0 | 0.00 | 0.00 | 0.00 | 81 | 1017.7 |
| 20260906074018 | 13 | 146 | 4.8 | 8.0 | 0.00 | 0.00 | 0.00 | 80 | 1017.7 |
| 20260906073518 | 13 | 146 | 4.8 | 8.0 | 0.00 | 0.00 | 0.00 | 78 | 1017.6 |
| 20260906073054 | 13 | 146 | 4.8 | 6.4 | 0.00 | 0.00 | 0.00 | 79 | 1017.7 |
| 20260906072517 | 13 | 146 | 4.8 | 8.0 | 0.00 | 0.00 | 0.00 | 79 | 1017.6 |
| 20260906072020 | 13 | 146 | 4.8 | 8.0 | 0.00 | 0.00 | 0.00 | 80 | 1017.6 |
| 20260906071536 | 13 | 146 | 4.8 | 6.4 | 0.00 | 0.00 | 0.00 | 81 | 1017.7 |
| 20260906071018 | 13 | 146 | 4.8 | 6.4 | 0.00 | 0.00 | 0.00 | 81 | 1017.7 |
| 20260906070518 | 13 | 146 | 4.8 | 6.4 | 0.00 | 0.00 | 0.00 | 81 | 1017.7 |
| 20260906070041 | 13 | 146 | 4.8 | 6.4 | 0.00 | 0.00 | 0.00 | 82 | 1017.7 |
| 20260906065519 | 13 | 146 | 3.2 | 6.4 | 0.00 | 0.00 | 0.00 | 82 | 1017.7 |
| 20260906065018 | 13 | 146 | 3.2 | 6.4 | 0.00 | 0.00 | 0.00 | 81 | 1017.7 |
| 20260906064539 | 13 | 146 | 3.2 | 6.4 | 0.00 | 0.00 | 0.00 | 80 | 1017.6 |
| 20260906064018 | 13 | 146 | 4.8 | 6.4 | 0.00 | 0.00 | 0.00 | 80 | 1017.6 |
| 20260906063517 | 13 | 146 | 4.8 | 6.4 | 0.00 | 0.00 | 0.00 | 80 | 1017.5 |
| 20260906063047 | 13 | 146 | 4.8 | 8.0 | 0.00 | 0.00 | 0.00 | 80 | 1017.6 |
| 20260906061543 | 14 | 146 | 4.8 | 6.4 | 0.00 | 0.00 | 0.00 | 79 | 1017.6 |
| 20260906061019 | 14 | 146 | 4.8 | 6.4 | 0.00 | 0.00 | 0.00 | 79 | 1017.7 |
| 20260906060519 | 14 | 146 | 4.8 | 6.4 | 0.00 | 0.00 | 0.00 | 78 | 1017.5 |
| 20260906060042 | 14 | 146 | 4.8 | 6.4 | 0.00 | 0.00 | 0.00 | 77 | 1017.4 |
| 20260906055521 | 14 | 146 | 4.8 | 6.4 | 0.00 | 0.00 | 0.00 | 77 | 1017.4 |
| 20260906055017 | 14 | 146 | 4.8 | 6.4 | 0.00 | 0.00 | 0.00 | 77 | 1017.4 |
| 20260906054546 | 14 | 146 | 4.8 | 8.0 | 0.00 | 0.00 | 0.00 | 74 | 1017.4 |
| 20260906053042 | 14 | 146 | 6.4 | 8.0 | 0.00 | 0.00 | 0.00 | 78 | 1017.5 |
| 20260906051556 | 14 | 146 | 4.8 | 6.4 | 0.00 | 0.00 | 0.00 | 76 | 1017.4 |
| 20260906051020 | 14 | 146 | 4.8 | 6.4 | 0.00 | 0.00 | 0.00 | 77 | 1017.4 |
| 20260906050517 | 15 | 146 | 4.8 | 6.4 | 0.00 | 0.00 | 0.00 | 75 | 1017.4 |
| 20260906050053 | 15 | 146 | 4.8 | 6.4 | 0.00 | 0.00 | 0.00 | 74 | 1017.4 |
| 20260906045520 | 15 | 146 | 4.8 | 6.4 | 0.00 | 0.00 | 0.00 | 76 | 1017.6 |
| 20260906045017 | 15 | 146 | 4.8 | 6.4 | 0.00 | 0.00 | 0.00 | 74 | 1017.5 |
| 20260906044550 | 15 | 146 | 4.8 | 6.4 | 0.00 | 0.00 | 0.00 | 73 | 1017.5 |
| 20260906043517 | 15 | 146 | 6.4 | 8.0 | 0.00 | 0.00 | 0.00 | 72 | 1017.5 |
| 20260906043043 | 15 | 120 | 8.0 | 9.7 | 0.00 | 0.00 | 0.00 | 74 | 1017.5 |
| 20260906042516 | 15 | 166 | 4.8 | 8.0 | 0.00 | 0.00 | 0.00 | 72 | 1017.6 |
| 20260906042016 | 15 | 166 | 6.4 | 8.0 | 0.00 | 0.00 | 0.00 | 70 | 1017.6 |
| 20260906041535 | 15 | 166 | 6.4 | 8.0 | 0.00 | 0.00 | 0.00 | 71 | 1017.6 |
| 20260906041020 | 15 | 117 | 4.8 | 9.7 | 0.00 | 0.00 | 0.00 | 75 | 1017.7 |
| 20260906040517 | 15 | 117 | 4.8 | 9.7 | 0.00 | 0.00 | 0.00 | 73 | 1017.7 |
| 20260906040038 | 15 | 117 | 4.8 | 6.4 | 0.00 | 0.00 | 0.00 | 74 | 1017.7 |
| 20260906035516 | 15 | 117 | 4.8 | 6.4 | 0.00 | 0.00 | 0.00 | 75 | 1017.8 |
| 20260906035018 | 16 | 117 | 4.8 | 6.4 | 0.00 | 0.00 | 0.00 | 75 | 1017.9 |
| 20260906034539 | 16 | 117 | 3.2 | 4.8 | 0.00 | 0.00 | 0.00 | 72 | 1017.8 |
| 20260906034021 | 16 | 117 | 3.2 | 4.8 | 0.00 | 0.00 | 0.00 | 75 | 1017.8 |
| 20260906033518 | 16 | 117 | 3.2 | 4.8 | 0.00 | 0.00 | 0.00 | 75 | 1017.7 |
| 20260906033035 | 16 | 117 | 1.6 | 3.2 | 0.00 | 0.00 | 0.00 | 73 | 1017.7 |
| 20260906032515 | 16 | 117 | 1.6 | 4.8 | 0.00 | 0.00 | 0.00 | 75 | 1017.6 |
| 20260906032016 | 16 | 117 | 1.6 | 4.8 | 0.00 | 0.00 | 0.00 | 72 | 1017.6 |
| 20260906031542 | 16 | 117 | 1.6 | 4.8 | 0.00 | 0.00 | 0.00 | 74 | 1017.7 |
| 20260906031016 | 16 | 117 | 1.6 | 4.8 | 0.00 | 0.00 | 0.00 | 73 | 1017.7 |
| 20260906030517 | 17 | 117 | 3.2 | 4.8 | 0.00 | 0.00 | 0.00 | 71 | 1017.7 |
| 20260906025520 | 17 | 117 | 1.6 | 4.8 | 0.00 | 0.00 | 0.00 | 72 | 1017.6 |
| 20260906025016 | 17 | 117 | 1.6 | 3.2 | 0.00 | 0.00 | 0.00 | 70 | 1017.6 |
| 20260906024534 | 17 | 117 | 1.6 | 4.8 | 0.00 | 0.00 | 0.00 | 68 | 1017.5 |
| 20260906024017 | 17 | 117 | 3.2 | 4.8 | 0.00 | 0.00 | 0.00 | 69 | 1017.5 |
| 20260906023518 | 18 | 117 | 1.6 | 4.8 | 0.00 | 0.00 | 0.00 | 69 | 1017.5 |
| 20260906023034 | 18 | 117 | 3.2 | 4.8 | 0.00 | 0.00 | 0.00 | 65 | 1017.5 |
| 20260906022519 | 19 | 117 | 0.0 | 3.2 | 0.00 | 0.00 | 0.00 | 64 | 1017.6 |
| 20260906022017 | 18 | 117 | 0.0 | 4.8 | 0.00 | 0.00 | 0.00 | 61 | 1017.6 |
| 20260906021534 | 19 | 117 | 3.2 | 4.8 | 0.00 | 0.00 | 0.00 | 63 | 1017.5 |
| 20260906021017 | 20 | 117 | 3.2 | 4.8 | 0.00 | 0.00 | 0.00 | 63 | 1017.5 |
| 20260906020517 | 21 | 117 | 0.0 | 4.8 | 0.00 | 0.00 | 0.00 | 60 | 1017.7 |
| 20260906015516 | 21 | 279 | 3.2 | 6.4 | 0.00 | 0.00 | 0.00 | 55 | 1017.8 |
| 20260906015018 | 20 | 279 | 3.2 | 6.4 | 0.00 | 0.00 | 0.00 | 58 | 1017.7 |
| 20260906014536 | 21 | 279 | 4.8 | 8.0 | 0.00 | 0.00 | 0.00 | 57 | 1017.6 |
| 20260906014016 | 20 | 279 | 3.2 | 8.0 | 0.00 | 0.00 | 0.00 | 57 | 1017.6 |
| 20260906013518 | 21 | 279 | 4.8 | 11.3 | 0.00 | 0.00 | 0.00 | 57 | 1017.7 |
| 20260906012518 | 21 | 289 | 4.8 | 12.9 | 0.00 | 0.00 | 0.00 | 56 | 1017.9 |
| 20260906012016 | 21 | 289 | 6.4 | 12.9 | 0.00 | 0.00 | 0.00 | 57 | 1017.9 |
| 20260906011545 | 21 | 292 | 4.8 | 8.0 | 0.00 | 0.00 | 0.00 | 54 | 1017.8 |
| 20260906011018 | 21 | 298 | 3.2 | 8.0 | 0.00 | 0.00 | 0.00 | 54 | 1017.8 |
| 20260906010517 | 21 | 290 | 4.8 | 8.0 | 0.00 | 0.00 | 0.00 | 53 | 1017.9 |
| 20260906010036 | 21 | 292 | 6.4 | 8.0 | 0.00 | 0.00 | 0.00 | 53 | 1017.9 |
| 20260906005518 | 21 | 277 | 4.8 | 9.7 | 0.00 | 0.00 | 0.00 | 53 | 1017.8 |
| 20260906005018 | 21 | 275 | 1.6 | 9.7 | 0.00 | 0.00 | 0.00 | 53 | 1017.9 |
| 20260906004537 | 21 | 275 | 3.2 | 9.7 | 0.00 | 0.00 | 0.00 | 53 | 1017.9 |
| 20260906004017 | 21 | 275 | 3.2 | 9.7 | 0.00 | 0.00 | 0.00 | 54 | 1017.8 |
| 20260906003517 | 21 | 275 | 4.8 | 11.3 | 0.00 | 0.00 | 0.00 | 55 | 1017.9 |
| 20260906002518 | 21 | 293 | 6.4 | 11.3 | 0.00 | 0.00 | 0.00 | 55 | 1017.9 |
| 20260906002018 | 21 | 292 | 4.8 | 11.3 | 0.00 | 0.00 | 0.00 | 54 | 1017.8 |
| 20260906001019 | 21 | 295 | 6.4 | 12.9 | 0.00 | 0.00 | 0.00 | 49 | 1017.8 |
| 20260906000517 | 21 | 294 | 8.0 | 12.9 | 0.00 | 0.00 | 0.00 | 47 | 1017.8 |
| 20260906000034 | 21 | 287 | 8.0 | 12.9 | 0.00 | 0.00 | 0.00 | 49 | 1017.9 |
| 20260905235518 | 21 | 282 | 6.4 | 12.9 | 0.00 | 0.00 | 0.00 | 50 | 1017.9 |
| 20260905235019 | 21 | 293 | 6.4 | 11.3 | 0.00 | 0.00 | 0.00 | 48 | 1017.9 |
| 20260905234532 | 21 | 293 | 4.8 | 11.3 | 0.00 | 0.00 | 0.00 | 48 | 1017.9 |
| 20260905234017 | 21 | 297 | 6.4 | 11.3 | 0.00 | 0.00 | 0.00 | 49 | 1018.1 |
| 20260905233519 | 21 | 290 | 4.8 | 9.7 | 0.00 | 0.00 | 0.00 | 48 | 1018.0 |
| 20260905233041 | 21 | 266 | 3.2 | 9.7 | 0.00 | 0.00 | 0.00 | 48 | 1018.2 |
| 20260905232517 | 21 | 290 | 3.2 | 9.7 | 0.00 | 0.00 | 0.00 | 49 | 1018.3 |
| 20260905232016 | 21 | 298 | 6.4 | 9.7 | 0.00 | 0.00 | 0.00 | 53 | 1018.2 |